Qianfan Jigui 03-05

operational
NORAD ID: 62242 Int'l Des: 2024-232 Owner: YUANX Country: CN Constellation: qianfan
LEOCIRCULARPOLAR

Qianfan Jigui 03-05について

説明を読み込み中...

リアルタイム位置

3D地球を読み込み中...

次回通過

高度履歴

Altitude vs Time

uPlot chart will show altitude changes over time

軌道要素

1 62242U 24232F 25340.61471127 .00000193 00000-0 28019-3 0 9998
2 62242 89.0031 41.8148 0013636 201.0414 159.0178 13.50976672 98426
Epoch: Dec 6, 2025 • Age: 13 hours

現在のステータス

高度 1069.5 km
速度 7.32 km/s
衛星直下点 -28.97°S, 82.72°E
打ち上げ日 Dec 5, 2024
運用期間 1 years
タイプ internet

技術仕様

分類 Payload
質量 267.00 kg
乾燥質量 267.00 kg
総質量 267.00 kg
長さ 0.30 m
直径 3.00 m
スパン 10.00 m
形状 Box+pan
製造者 SECM
バスタイプ Qianfan
フェーズステータス In Orbit
所有者/国 YUANX/CN

大規模コンステレーション

Loading constellations...